Probability
0 0 0 0 0 0 0 0 1 1 1 1 1 2 4 6 7 7 6 6 6 9 12 15 19 21 22 25 26 25 25 26 28 32 34 33 29 28 28 27 25 23 21 20
0 0 0 0 0 0 0 0 1 1 1 1 1 2 3 6 8 8 8 7 7 10 13 15 20 22 23 27 29 30 31 31 32 33 33 30 27 25 25 24 21 19 18 18
0 0 0 0 0 0 0 0 1 1 1 2 2 2 3 6 9 10 10 9 8 11 15 17 20 24 27 31 34 35 34 33 33 33 31 29 25 23 21 18 16 16 16 15
0 0 0 0 1 0 0 0 0 1 3 4 2 2 4 7 10 12 12 12 12 15 19 20 22 25 29 33 35 34 31 29 29 29 29 27 25 22 19 17 15 14 14 14
0 0 0 1 2 1 0 0 0 2 4 5 4 3 6 10 12 14 16 16 18 20 22 24 25 26 28 30 31 29 26 25 26 27 27 26 24 21 20 19 18 16 15 15
0 1 1 3 4 2 1 1 2 3 4 6 7 7 11 16 17 19 20 21 21 23 25 26 26 27 27 26 26 25 24 24 25 26 26 26 24 21 20 22 21 20 19 20
1 1 2 3 4 4 4 5 6 4 4 7 11 15 21 24 23 22 22 22 22 24 27 27 28 29 27 25 24 24 23 23 23 24 25 25 23 20 19 21 22 21 21 23
2 2 2 3 4 6 8 11 12 10 8 11 16 22 28 28 26 23 23 22 22 25 28 27 28 29 28 26 25 24 23 23 24 24 23 22 21 19 18 19 20 19 19 20
4 2 2 3 4 8 11 14 17 16 15 16 20 25 29 28 26 24 22 22 23 25 27 27 25 25 26 25 24 24 23 23 23 22 20 20 20 19 17 17 17 17 17 19
7 4 2 4 6 9 11 13 16 17 18 20 23 26 27 26 25 24 22 21 22 23 25 25 22 20 21 21 22 23 22 20 20 19 19 19 20 18 17 16 16 16 18 19
8 6 6 8 11 13 14 14 16 17 19 22 25 27 26 23 22 22 21 19 18 19 21 21 19 16 15 16 18 20 19 17 18 18 18 18 18 17 15 14 13 13 14 15
8 9 12 13 15 16 16 15 17 19 21 23 26 26 24 20 19 19 18 16 15 15 15 15 14 13 12 12 14 17 17 16 15 16 17 17 16 14 13 11 8 7 8 8
11 12 15 16 14 14 14 15 16 19 20 21 23 22 20 18 16 15 14 15 16 15 13 12 10 10 9 9 11 13 15 14 14 14 15 14 14 13 12 10 7 5 4 4
12 13 15 15 14 12 13 14 15 14 15 17 17 15 14 13 12 12 13 15 16 15 13 11 9 7 6 6 8 10 11 11 12 13 14 14 13 13 13 12 11 8 5 3
10 10 12 14 12 11 12 12 10 9 10 12 12 10 9 9 10 11 13 14 14 13 12 11 10 6 4 3 6 7 7 7 8 10 12 12 12 12 13 15 15 13 10 7
8 8 9 10 11 10 8 7 5 5 6 9 9 8 7 7 8 10 12 14 14 12 11 13 12 8 5 4 4 5 6 5 5 6 8 8 9 11 13 15 15 15 14 12
6 6 6 8 9 8 5 3 3 4 6 8 8 7 6 6 7 9 11 14 13 11 12 14 14 11 7 6 6 6 6 5 4 4 4 5 7 9 12 13 14 14 13 13
4 4 4 6 8 7 6 5 5 6 7 9 9 7 6 6 7 8 10 13 12 11 11 13 12 11 10 9 8 8 7 6 4 3 4 5 7 9 10 11 12 12 12 11
4 4 4 6 8 8 8 8 7 8 9 9 8 7 6 6 7 9 10 11 11 10 10 10 9 10 11 10 9 9 8 6 4 4 5 6 7 9 10 10 10 11 10 10
4 5 6 7 9 9 10 9 9 9 10 9 8 7 6 6 7 9 9 9 8 8 8 8 8 10 11 10 8 7 7 5 4 5 6 6 7 9 10 10 10 9 9 9
5 6 7 9 9 10 10 10 10 10 10 9 8 7 6 6 7 8 8 7 6 6 6 6 7 8 8 6 5 5 5 4 4 4 5 6 7 9 10 10 10 8 8 9
6 6 8 9 10 10 10 10 10 10 10 9 8 7 6 6 7 7 7 6 5 6 6 6 6 6 4 3 3 3 3 3 2 3 3 4 5 7 8 8 8 8 8 9
8 7 8 9 10 10 10 10 10 10 10 9 8 7 6 5 5 6 6 6 6 6 6 6 5 3 2 3 3 3 2 2 2 2 2 3 5 6 6 6 6 6 8 9
11 10 10 10 10 10 10 10 10 10 9 8 7 6 5 4 4 6 6 5 6 6 6 4 2 1 1 4 5 4 2 2 2 2 2 3 4 5 6 5 5 5 6 7
11 10 10 10 10 10 10 9 9 9 8 7 5 4 4 3 4 6 6 6 5 5 5 3 1 0 1 3 4 3 2 1 1 1 1 1 2 4 5 5 5 6 7 7
8 8 9 10 11 11 9 8 7 7 7 6 5 4 3 3 4 6 6 6 6 5 4 2 1 1 2 3 3 2 1 0 0 0 0 0 0 2 3 4 6 8 9 9
6 7 9 10 11 11 9 7 6 6 5 6 6 5 4 4 5 6 6 6 6 5 4 3 2 2 3 3 2 1 0 0 0 0 0 0 0 1 2 4 5 8 10 10
Wind_Speed
7 5 7 8 9 10 11 11 11 9 8 5 3 3 2 2 2 3 3 4 5 4 4 5 5 6 6 7 7 7 7 7 7 6 6 6 5 5 5 5 4 4 3 3
8 8 8 9 10 10 11 11 11 10 8 2 1 0 1 2 2 3 3 3 4 4 4 5 6 6 6 7 7 7 7 7 6 6 6 5 5 5 5 4 4 4 4 4
8 8 9 11 9 9 9 9 10 10 6 2 1 1 2 1 2 2 2 2 2 3 4 4 5 5 6 6 6 6 6 6 6 6 6 6 6 5 5 5 4 4 4 4
7 7 12 4 2 4 6 7 6 4 3 2 2 1 0 0 0 0 1 1 2 2 3 3 4 4 5 6 6 6 6 6 6 6 6 5 5 5 5 4 4 4 4 4
8 10 9 5 3 4 6 6 3 3 2 1 0 2 2 2 2 1 1 1 1 1 2 3 3 4 5 6 6 6 6 6 6 6 6 5 5 5 4 4 4 4 4 4
8 10 10 4 3 2 6 7 3 2 2 1 3 4 2 3 2 2 2 1 0 1 2 3 3 4 5 6 6 6 5 5 5 5 5 5 5 4 4 4 4 4 4 4
10 10 6 1 1 5 9 1 1 1 2 2 3 4 3 2 2 2 2 2 2 2 2 3 4 5 5 5 5 5 5 5 5 5 5 4 4 4 3 4 3 4 3 4
9 10 6 1 4 5 2 3 1 1 0 0 1 3 3 2 2 3 3 2 2 3 3 3 4 4 4 3 3 3 4 4 4 4 4 4 4 4 4 4 4 4 4 4
3 2 3 1 1 2 1 1 1 1 1 2 2 2 3 3 3 4 4 3 3 3 3 3 3 3 4 3 2 3 4 4 4 4 4 4 5 5 5 4 4 4 4 4
3 2 1 1 1 1 1 1 1 1 2 2 3 3 4 4 4 4 4 4 3 3 3 3 3 3 3 2 2 2 3 3 3 4 4 3 3 3 3 3 4 4 4 3
4 2 2 1 1 1 1 1 2 3 3 3 3 3 3 4 4 4 4 4 4 3 3 3 3 3 3 2 2 2 2 2 3 3 3 3 3 2 3 2 2 3 3 3
3 2 2 1 1 1 1 1 2 3 3 3 3 3 4 4 3 3 4 4 4 4 3 3 3 3 3 2 1 1 2 1 1 2 2 2 3 3 2 2 3 3 2 3
2 2 2 1 0 1 1 2 3 3 3 3 3 3 4 4 3 3 4 4 3 3 2 2 2 2 1 1 1 1 0 0 1 1 1 2 2 3 3 3 4 5 4 3
2 3 2 2 1 2 3 4 4 4 4 3 3 3 3 4 3 3 3 3 2 2 2 2 1 1 1 0 0 1 1 1 1 1 1 1 2 2 3 3 3 3 4 5
2 2 2 2 3 3 3 4 4 4 4 3 3 2 2 2 2 2 2 2 2 2 2 1 1 1 1 0 1 1 1 1 1 1 1 1 2 3 3 3 3 2 1 3
2 2 3 3 4 4 4 4 3 4 3 2 2 2 2 2 2 1 1 1 2 2 1 1 1 1 1 2 2 2 1 0 2 2 1 1 2 2 2 3 3 2 2 1
4 4 4 4 4 4 3 3 3 3 2 2 1 1 1 1 1 1 1 1 2 1 1 2 2 2 2 2 3 2 2 1 3 3 2 2 2 3 3 3 3 3 2 1
2 2 3 3 3 3 3 3 2 2 2 2 1 1 0 0 0 1 1 2 2 1 1 1 2 3 2 2 3 3 3 3 3 3 3 2 3 3 3 4 4 4 3 2
2 2 3 3 3 3 3 2 2 1 2 2 2 1 1 1 1 1 1 2 2 2 1 1 1 2 2 2 4 3 3 3 4 3 3 3 4 4 4 4 4 4 3 3
2 2 3 4 4 4 3 2 2 1 1 2 2 1 1 1 2 2 2 3 2 2 1 1 2 2 2 2 4 4 3 4 4 3 3 4 4 4 4 4 4 4 3 3
2 3 3 3 3 3 3 3 2 2 2 2 2 2 1 2 2 3 3 2 0 1 1 1 2 2 2 3 4 4 3 4 4 4 4 4 4 4 4 4 4 4 3 3
1 2 2 2 2 2 2 2 2 2 2 2 2 1 2 2 3 2 2 2 0 0 2 2 1 2 3 5 3 3 3 4 4 4 4 4 3 4 4 4 4 4 4 4
1 1 2 2 2 2 2 2 2 2 2 2 2 2 2 2 2 3 2 0 1 0 2 1 1 1 3 4 3 3 3 3 3 4 4 4 3 3 4 4 4 4 4 4
1 1 1 1 1 1 1 1 1 1 1 2 2 2 2 2 2 2 1 1 0 1 2 1 1 2 4 4 3 2 3 3 3 4 4 4 4 4 4 4 4 4 4 4
1 1 1 1 1 1 1 1 1 2 2 1 2 2 2 1 1 1 1 0 1 2 2 1 3 3 3 2 2 2 3 3 3 4 4 4 4 4 4 4 4 4 3 3
1 0 1 0 1 1 0 1 1 1 1 0 0 0 0 0 1 1 1 1 1 1 2 1 1 2 2 2 2 2 3 2 3 3 4 4 4 4 3 3 3 3 3 3
1 1 0 1 1 0 1 1 1 1 1 0 0 0 1 1 1 1 1 1 1 1 1 1 1 1 2 2 3 3 3 3 3 4 3 3 3 3 3 4 3 3 3 3
Wind_Direction
255 253 236 230 229 229 237 250 257 250 248 256 264 248 209 177 177 188 187 188 180 180 184 189 191 195 194 192 187 186 189 193 190 191 190 190 192 195 194 195 193 183 180 180
233 232 232 239 236 235 240 247 251 257 258 281 319 232 199 205 195 197 204 205 197 190 189 195 196 195 190 189 186 186 189 190 184 187 187 188 193 195 193 192 188 183 187 189
232 219 231 230 229 230 233 241 249 251 257 259 258 227 227 222 209 220 224 232 226 208 200 196 197 192 187 183 180 184 187 183 179 182 185 189 194 193 195 195 189 196 198 202
233 217 231 216 176 229 237 245 254 267 277 290 310 294 236 218 156 335 317 288 261 229 201 192 181 176 179 173 176 176 176 178 181 185 189 188 191 193 198 199 197 203 208 212
233 230 230 208 201 232 237 238 232 248 271 288 217 188 156 86 52 5 328 311 276 244 184 165 165 167 171 169 167 172 177 182 185 187 189 189 192 195 198 199 202 206 207 208
230 237 234 194 147 268 248 226 170 227 248 252 236 240 116 69 36 24 18 31 76 148 148 147 151 160 166 172 174 179 181 183 181 184 190 193 192 193 195 199 206 208 206 210
231 237 239 91 155 224 231 207 90 253 249 244 265 347 60 75 52 39 38 50 80 111 115 128 140 153 162 172 179 181 178 177 179 183 188 185 183 186 194 203 207 213 214 217
228 237 226 135 219 234 333 29 337 294 244 218 65 78 91 93 87 76 59 58 84 99 99 117 128 140 146 153 163 168 173 176 180 186 193 181 182 187 195 202 203 210 218 224
258 266 26 1 312 4 2 319 348 93 113 151 139 111 96 93 87 77 64 56 72 92 97 100 109 120 121 116 137 158 165 173 178 184 193 192 192 193 196 201 215 219 220 222
240 232 278 345 341 356 15 21 24 78 123 134 118 109 100 90 82 75 70 63 65 76 82 84 82 87 92 89 111 145 157 166 176 180 186 190 201 204 210 214 223 228 231 232
236 242 247 250 324 3 50 80 101 98 102 108 110 108 99 90 77 69 65 61 58 62 70 77 77 75 71 77 95 120 140 164 181 177 182 189 191 210 220 220 240 250 248 241
250 223 251 230 343 338 113 107 107 106 99 94 102 101 91 84 77 69 63 56 53 55 63 67 69 67 57 60 86 114 138 156 185 190 187 199 195 193 187 223 192 209 248 263
263 277 272 219 263 135 111 102 98 95 96 89 78 85 89 85 74 63 57 50 46 43 64 67 67 65 60 73 112 127 132 157 222 214 201 207 214 221 215 206 202 201 210 224
229 225 212 204 188 136 103 95 93 91 89 84 81 85 92 91 80 61 46 39 37 37 58 67 71 61 39 62 146 205 229 149 250 240 254 245 235 236 237 241 226 218 204 202
222 235 212 178 150 137 123 117 112 102 97 92 94 101 106 98 83 55 35 27 32 34 54 52 36 20 355 294 255 263 274 289 275 283 268 273 269 263 260 255 252 241 232 179
199 186 179 172 165 157 146 137 125 114 106 106 110 108 108 95 79 56 24 18 9 20 26 8 341 340 321 285 263 241 234 324 290 282 278 271 271 272 271 265 260 257 249 258
198 188 183 172 160 154 150 142 133 131 134 133 128 130 131 114 86 40 359 359 348 353 352 343 333 330 303 283 280 280 277 232 226 268 280 286 288 283 277 271 270 271 269 246
206 197 187 173 159 150 148 150 149 149 157 163 164 173 174 35 314 320 312 322 313 296 311 329 339 319 308 307 298 293 288 292 282 276 280 284 283 278 277 275 274 273 278 240
175 167 161 163 163 166 163 160 163 154 157 174 189 204 240 273 294 291 280 284 276 263 291 352 341 293 305 325 309 283 292 297 291 283 275 259 256 266 271 274 276 276 274 271
163 170 169 174 179 173 166 161 161 170 183 189 197 206 240 266 278 282 273 270 294 341 3 343 290 290 297 307 301 293 295 291 288 284 280 277 276 274 273 274 273 274 275 273
152 153 155 164 163 159 162 170 177 183 185 196 217 236 257 276 280 273 261 263 4 346 282 214 255 289 310 321 277 285 291 288 289 289 286 284 285 286 285 285 287 287 284 283
129 135 142 152 160 162 162 172 179 183 185 194 201 223 254 267 279 272 259 296 324 100 269 257 273 16 342 303 286 295 295 296 297 298 298 297 294 294 296 299 299 297 295 295
85 113 141 155 158 156 171 173 178 187 192 199 210 228 249 274 281 278 271 262 268 199 268 298 30 25 305 278 280 285 293 297 298 301 302 302 300 299 297 295 292 289 290 292
101 124 133 139 148 161 154 138 154 184 211 227 222 228 238 243 253 271 282 129 154 263 277 91 142 258 266 267 281 295 303 304 305 304 299 297 297 297 295 291 292 290 288 284
89 99 126 161 183 147 122 148 183 194 216 213 207 205 235 261 291 313 313 340 128 243 269 163 186 232 259 287 300 307 307 322 322 310 299 300 302 303 300 296 297 297 297 295
98 119 103 81 39 18 233 215 210 211 238 226 218 53 325 314 289 267 257 278 292 272 289 297 222 235 272 292 301 307 315 317 304 299 311 309 307 310 317 321 319 321 320 315
111 109 152 136 108 6 327 330 338 8 19 349 302 310 309 308 294 291 286 285 284 280 294 305 305 301 302 302 310 315 319 319 318 319 320 318 318 317 321 317 315 315 312 309